Temp
61 61 61 61 61 61 61 61 62 62 63 63 63 63 63 63 63 85 88 83 83 74 74 96 97 96 99 93 96 98 85 83 82 81 84 89 87 92 93 91 91 93 92 94 99
61 61 61 61 61 61 61 61 62 62 63 63 63 63 63 63 85 90 79 77 76 75 92 94 91 94 93 90 92 89 85 83 87 87 85 87 87 88 87 88 88 89 94 97 98
60 60 60 61 61 61 61 61 62 62 63 63 63 63 63 70 87 87 77 77 76 78 97 97 95 95 88 93 89 89 84 85 84 86 87 85 86 88 86 84 88 85 90 94 95
60 60 60 60 60 60 61 61 62 63 63 62 62 63 63 86 76 92 80 78 77 91 98 94 94 88 87 83 89 82 85 85 86 85 85 84 87 85 85 87 90 91 93 93 93
59 59 59 59 60 60 60 61 61 62 62 62 63 63 82 88 87 96 83 84 96 99 94 93 89 88 83 85 86 83 83 84 85 85 85 85 84 83 85 89 91 92 92 92 92
59 59 59 59 59 60 60 60 60 60 61 62 63 62 85 81 97 98 97 98 98 98 95 95 91 93 86 84 84 84 84 84 85 85 85 81 84 85 88 90 89 89 89 91 90
59 58 58 59 59 60 60 59 59 60 61 63 65 83 90 85 98 100 98 96 97 96 91 94 94 90 89 82 87 84 79 82 84 84 82 83 79 82 89 88 87 88 88 89 90
58 58 58 59 59 60 60 59 59 60 62 64 66 87 84 97 102 98 99 95 97 97 94 94 96 90 88 88 84 81 81 77 85 84 83 81 73 85 89 87 85 87 86 86 88
58 58 58 59 59 60 59 59 60 63 64 67 84 88 82 86 92 96 98 91 93 94 93 92 92 87 86 81 80 80 74 76 78 85 81 81 75 86 90 87 85 85 85 85 85
58 57 58 58 59 59 58 59 63 66 75 92 94 85 89 86 92 93 97 94 89 90 88 87 87 83 86 81 69 71 72 75 74 82 81 77 77 84 87 86 85 84 84 83 82
58 58 58 58 59 58 67 87 84 82 89 84 86 84 87 93 95 91 94 91 90 88 80 84 79 76 76 76 76 75 73 72 77 81 75 75 75 80 85 84 84 83 82 81 81
57 58 58 58 59 59 74 88 85 88 80 88 86 87 90 92 84 88 94 85 82 78 81 79 75 78 78 77 75 74 72 73 76 80 76 74 73 80 84 81 80 79 79 79 81
56 57 58 58 59 68 91 86 95 92 80 82 87 87 88 90 83 84 89 85 80 76 77 74 78 78 75 75 73 74 71 70 68 74 76 74 72 76 80 79 79 80 80 81 80
56 56 57 56 70 94 89 93 97 93 74 74 80 85 88 88 79 89 90 85 80 75 76 76 81 75 74 73 74 66 75 71 69 67 61 73 58 71 77 76 77 79 79 80 79
56 56 57 54 89 91 89 96 97 88 57 79 82 94 89 83 83 83 90 85 75 77 75 73 74 73 71 72 73 68 74 70 69 67 67 68 64 69 76 72 75 78 79 79 80
56 56 57 79 93 93 96 94 88 68 56 73 81 79 80 81 81 84 82 86 84 76 77 76 81 76 75 75 74 74 70 71 72 70 58 67 63 65 70 73 75 79 80 80 80
55 56 68 90 87 96 95 87 68 62 76 71 74 78 78 75 75 76 74 74 70 64 67 73 75 77 75 71 76 73 66 55 54 56 56 69 63 65 72 75 74 74 77 79 79
54 53 69 94 95 94 89 76 59 70 71 77 75 76 71 74 74 72 71 70 73 71 67 63 59 70 74 70 65 67 65 55 45 49 54 64 56 66 74 76 75 77 76 74 74
52 85 92 92 92 90 80 67 68 70 74 71 74 70 71 72 71 70 71 68 71 71 61 61 61 73 74 75 72 66 61 68 55 58 53 61 66 73 71 69 71 72 68 72 73
83 88 86 92 91 84 75 62 70 74 74 73 66 70 66 70 67 68 69 71 68 70 72 65 54 69 70 71 73 68 72 55 57 41 41 54 55 59 61 64 69 67 66 65 72
81 81 88 94 90 79 70 71 72 76 75 69 68 67 68 66 67 67 67 69 69 68 70 67 61 62 68 66 64 66 64 64 62 56 45 43 51 66 64 65 65 65 64 56 61
82 77 90 92 75 81 74 70 59 72 75 72 71 69 67 67 65 66 64 67 68 69 61 66 59 52 60 70 69 66 62 61 48 45 51 47 46 70 68 67 63 58 61 57 58
78 81 90 88 69 73 71 70 70 70 69 69 68 68 69 65 56 65 66 69 67 66 61 63 54 46 55 62 65 61 64 64 60 56 47 43 49 70 70 66 66 64 67 63 60
78 72 80 83 77 67 66 68 66 70 68 69 68 69 67 65 68 61 64 68 65 64 56 59 51 52 48 55 61 56 60 62 58 45 50 51 55 61 61 62 65 65 65 62 59
77 68 67 67 71 67 67 66 65 63 68 69 65 65 63 58 63 63 65 66 68 56 60 59 49 56 59 60 61 59 58 59 57 58 49 54 55 59 60 59 63 65 61 63 61
69 67 73 69 67 66 58 64 62 64 64 64 62 64 64 59 62 59 63 62 60 64 59 60 43 53 51 60 61 56 59 60 60 59 58 58 56 62 61 63 60 58 59 59 58
75 75 68 61 67 65 67 63 62 63 66 66 64 62 62 63 66 67 66 64 62 58 56 54 47 48 46 57 54 47 57 58 59 60 58 49 57 63 58 59 60 59 58 61 59
MSLP
1017.01 1016.74 1016.50 1016.22 1016.04 1015.85 1015.59 1015.31 1015.00 1014.71 1014.45 1014.14 1013.81 1013.40 1012.96 1012.75 1012.26 1011.48 1010.33 1011.19 1010.78 1010.55 1010.54 1008.41 1007.48 1006.80 1006.03 1005.45 1005.10 1004.38 1002.82 1001.24 1001.68 1002.51 1002.88 1004.42 1004.50 1004.73 1005.36 1004.71 1005.05 1005.31 1005.55 1006.04 1006.04
1016.95 1016.67 1016.47 1016.22 1015.99 1015.79 1015.51 1015.22 1014.92 1014.63 1014.36 1014.05 1013.69 1013.27 1012.83 1012.64 1011.49 1010.34 1011.24 1010.98 1010.73 1010.39 1009.07 1007.28 1006.57 1006.22 1005.24 1005.11 1005.03 1003.95 1002.33 1002.18 1003.60 1004.30 1004.31 1004.98 1005.29 1005.19 1005.18 1004.87 1004.98 1005.61 1005.81 1006.06 1005.99
1017.00 1016.66 1016.40 1016.20 1015.95 1015.72 1015.44 1015.15 1014.87 1014.57 1014.25 1014.00 1013.59 1013.05 1012.60 1012.30 1010.19 1010.19 1011.05 1010.81 1010.44 1010.13 1008.46 1007.36 1006.65 1005.46 1004.93 1004.75 1004.83 1003.85 1003.04 1004.50 1005.44 1005.92 1005.91 1005.57 1005.54 1005.89 1005.34 1004.95 1005.33 1006.29 1006.22 1006.18 1006.06
1017.04 1016.71 1016.38 1016.12 1015.89 1015.65 1015.38 1015.09 1014.81 1014.53 1014.29 1013.95 1013.54 1013.03 1012.49 1011.68 1009.30 1010.08 1010.64 1010.47 1009.88 1009.21 1007.81 1007.15 1006.26 1005.33 1004.66 1004.81 1005.14 1004.80 1005.38 1005.58 1005.94 1006.71 1006.36 1005.87 1006.13 1006.02 1006.00 1005.80 1006.48 1006.69 1006.54 1006.46 1006.01
1016.98 1016.67 1016.37 1016.07 1015.80 1015.55 1015.30 1015.03 1014.72 1014.41 1014.04 1013.69 1013.36 1013.01 1012.06 1009.81 1009.34 1009.94 1010.28 1009.74 1008.98 1007.70 1007.04 1006.27 1005.73 1005.43 1005.05 1005.44 1005.33 1005.21 1005.90 1006.31 1006.66 1006.70 1006.60 1006.78 1006.38 1006.14 1005.94 1006.26 1006.93 1006.78 1006.65 1006.38 1006.26
1016.93 1016.58 1016.28 1015.99 1015.68 1015.41 1015.17 1014.94 1014.68 1014.39 1014.06 1013.67 1013.16 1012.91 1011.34 1009.07 1009.59 1009.50 1009.37 1008.76 1008.19 1007.42 1007.01 1006.51 1006.12 1005.90 1005.77 1005.87 1005.59 1006.12 1006.14 1006.17 1006.50 1006.34 1006.66 1006.83 1006.16 1005.95 1005.70 1006.36 1006.63 1006.59 1006.62 1006.55 1006.60
1016.89 1016.58 1016.22 1015.89 1015.60 1015.33 1015.07 1014.80 1014.54 1014.25 1013.92 1013.52 1013.20 1012.43 1009.56 1009.54 1009.51 1009.33 1009.10 1008.75 1008.69 1008.14 1007.46 1007.40 1006.99 1006.58 1006.15 1006.11 1006.51 1006.26 1005.97 1006.05 1006.12 1006.32 1006.50 1006.89 1005.52 1004.50 1005.41 1006.17 1006.18 1006.20 1006.52 1006.69 1006.71
1016.68 1016.40 1016.10 1015.81 1015.51 1015.23 1014.94 1014.64 1014.32 1013.99 1013.65 1013.16 1012.83 1011.66 1009.71 1009.68 1009.34 1009.10 1008.91 1008.82 1008.85 1008.67 1008.36 1008.17 1007.38 1006.84 1006.34 1006.71 1006.46 1005.75 1005.33 1004.18 1004.75 1005.66 1006.10 1006.75 1004.82 1004.30 1005.04 1005.59 1005.71 1005.79 1006.55 1006.85 1006.93
1016.49 1016.18 1015.88 1015.63 1015.38 1015.08 1014.76 1014.39 1014.01 1013.67 1013.47 1013.03 1012.29 1010.58 1009.24 1010.26 1009.26 1009.24 1008.90 1008.71 1008.64 1008.70 1008.70 1008.70 1007.83 1006.66 1006.62 1005.77 1004.77 1004.67 1003.90 1003.82 1004.19 1004.95 1005.74 1005.73 1004.79 1004.33 1004.62 1004.95 1005.28 1005.70 1006.35 1006.85 1007.24
1016.43 1016.05 1015.73 1015.46 1015.17 1014.87 1014.50 1014.18 1013.82 1013.54 1012.90 1011.72 1010.61 1009.60 1009.17 1008.66 1009.10 1009.42 1009.20 1009.02 1008.42 1008.15 1007.86 1007.68 1006.80 1005.87 1004.88 1004.96 1004.46 1004.67 1004.80 1004.73 1004.59 1004.70 1005.33 1005.37 1004.80 1004.35 1004.46 1004.53 1004.84 1005.51 1006.18 1006.99 1007.49
1016.40 1015.97 1015.56 1015.20 1014.89 1014.64 1014.07 1013.40 1013.24 1012.07 1010.72 1009.49 1008.80 1008.77 1008.66 1008.93 1009.34 1008.96 1009.07 1008.62 1008.18 1007.41 1006.63 1006.79 1005.78 1005.45 1006.49 1006.97 1006.85 1006.48 1006.00 1005.40 1005.03 1005.37 1006.03 1005.40 1004.93 1004.43 1004.22 1004.36 1004.58 1005.34 1006.31 1007.08 1007.67
1016.36 1015.88 1015.47 1015.04 1014.64 1014.52 1014.16 1011.07 1011.37 1010.94 1009.57 1009.51 1009.48 1009.07 1009.14 1009.04 1008.48 1008.71 1009.04 1008.23 1007.88 1006.95 1007.19 1006.61 1005.84 1007.21 1007.68 1007.60 1007.32 1006.77 1006.08 1005.40 1005.53 1005.58 1006.04 1005.40 1004.48 1003.84 1003.27 1003.91 1005.27 1005.96 1006.73 1007.25 1007.69
1016.34 1015.82 1015.32 1014.90 1014.43 1014.13 1012.13 1011.78 1011.19 1010.88 1009.44 1009.04 1008.87 1008.46 1008.55 1008.75 1008.33 1008.40 1008.71 1008.30 1007.81 1007.40 1007.10 1006.70 1006.55 1007.97 1008.00 1007.52 1007.17 1006.69 1006.45 1006.45 1006.77 1006.54 1006.08 1004.83 1003.65 1003.20 1003.53 1004.83 1005.76 1006.67 1007.17 1007.31 1007.66
1016.32 1015.74 1015.24 1014.87 1014.64 1011.92 1011.28 1011.46 1010.97 1011.11 1008.86 1008.75 1008.55 1008.40 1008.68 1008.52 1008.54 1009.12 1008.91 1008.79 1007.97 1007.64 1007.61 1007.12 1007.32 1008.08 1007.92 1007.55 1007.57 1007.37 1007.41 1007.83 1007.34 1006.77 1005.44 1005.50 1003.27 1003.15 1003.01 1004.03 1005.09 1006.11 1006.62 1007.05 1007.70
1016.30 1015.66 1015.13 1014.89 1012.86 1011.17 1011.82 1011.31 1010.97 1011.11 1008.02 1007.88 1007.73 1008.19 1008.29 1008.12 1008.36 1008.77 1009.23 1008.79 1008.31 1007.89 1008.34 1007.05 1007.67 1007.88 1007.95 1007.86 1008.58 1008.30 1008.43 1008.32 1007.60 1006.53 1005.56 1004.29 1003.21 1002.62 1002.89 1003.74 1004.26 1004.99 1005.72 1006.94 1007.58
1016.28 1015.58 1015.00 1013.63 1012.19 1011.90 1011.53 1011.53 1011.39 1010.00 1007.31 1007.61 1007.66 1007.83 1007.86 1008.08 1008.38 1008.58 1008.89 1009.30 1008.92 1008.73 1008.33 1008.08 1008.34 1008.90 1008.44 1008.80 1008.92 1009.26 1008.73 1007.73 1006.48 1005.15 1004.53 1003.58 1004.21 1003.40 1003.31 1003.46 1004.28 1004.85 1005.54 1006.58 1007.28
1016.29 1015.59 1014.89 1013.13 1011.91 1011.93 1011.68 1011.08 1009.91 1007.90 1007.77 1007.53 1007.61 1007.93 1007.50 1007.73 1008.45 1008.83 1008.76 1008.68 1008.82 1008.58 1007.62 1007.77 1007.70 1008.63 1009.63 1008.84 1008.33 1008.40 1008.41 1007.24 1006.00 1005.08 1004.22 1003.94 1003.96 1003.52 1003.81 1004.44 1005.29 1006.15 1006.66 1007.06 1007.65
1016.24 1015.68 1014.28 1012.97 1012.52 1012.30 1011.66 1010.57 1009.01 1007.81 1007.73 1008.35 1008.30 1008.16 1007.96 1008.39 1008.60 1009.11 1009.07 1008.65 1009.52 1009.71 1008.93 1008.34 1008.39 1008.98 1009.50 1009.72 1009.52 1009.12 1008.99 1008.60 1007.10 1006.71 1005.84 1006.29 1004.65 1003.39 1004.59 1005.35 1006.77 1007.26 1007.71 1008.71 1009.07
1015.98 1014.33 1012.67 1012.85 1012.88 1012.61 1011.44 1009.46 1008.23 1008.51 1008.93 1008.94 1008.58 1008.34 1007.86 1008.80 1009.48 1009.18 1008.92 1009.53 1010.06 1010.79 1010.66 1009.90 1009.23 1009.65 1009.87 1009.75 1010.06 1009.07 1009.10 1009.11 1009.24 1009.06 1007.28 1006.03 1005.16 1005.11 1005.95 1007.32 1008.01 1008.53 1009.11 1008.88 1009.69
1014.92 1012.90 1012.60 1012.91 1012.84 1012.32 1010.80 1009.63 1009.54 1010.19 1010.37 1009.91 1008.98 1008.79 1008.09 1008.33 1009.33 1009.24 1009.22 1010.48 1011.09 1012.04 1012.28 1011.44 1011.01 1010.07 1010.13 1010.93 1009.99 1009.83 1009.76 1009.83 1010.07 1009.34 1008.09 1007.09 1006.75 1005.65 1006.94 1008.07 1008.16 1008.74 1009.64 1010.82 1009.81
1015.12 1012.24 1012.53 1012.53 1012.34 1011.41 1009.88 1009.77 1010.52 1011.15 1011.20 1010.76 1009.93 1009.68 1009.62 1009.60 1009.96 1009.81 1010.08 1011.37 1012.32 1012.66 1013.26 1012.83 1012.35 1011.07 1010.55 1009.72 1009.18 1009.35 1009.25 1009.57 1009.72 1010.27 1009.68 1008.67 1007.42 1007.39 1008.05 1008.59 1009.42 1010.65 1011.84 1012.55 1012.66
1014.09 1011.64 1012.54 1012.21 1011.48 1010.70 1010.15 1011.60 1012.64 1011.59 1011.72 1011.51 1011.49 1011.13 1010.89 1010.85 1010.91 1010.66 1011.02 1011.84 1013.72 1013.96 1013.91 1013.84 1013.83 1012.33 1010.98 1010.02 1010.50 1010.72 1010.60 1010.70 1010.97 1011.47 1011.38 1010.58 1008.92 1008.87 1008.64 1009.66 1010.80 1011.87 1012.34 1013.70 1013.55
1014.41 1012.94 1012.73 1011.95 1011.01 1010.95 1012.03 1012.12 1012.57 1012.38 1012.30 1012.19 1011.88 1012.32 1012.19 1012.01 1012.22 1011.81 1012.00 1013.49 1014.56 1014.83 1015.36 1015.36 1014.82 1013.40 1011.06 1010.62 1010.91 1010.58 1010.46 1010.76 1011.31 1011.61 1011.54 1010.78 1009.24 1008.80 1008.93 1009.57 1010.79 1011.59 1011.96 1013.03 1014.25
1015.29 1013.07 1012.62 1012.63 1013.23 1013.25 1012.70 1012.34 1012.63 1013.58 1013.23 1013.23 1012.91 1013.09 1012.78 1012.47 1012.52 1012.65 1012.65 1013.41 1015.06 1015.78 1017.12 1017.25 1016.20 1014.55 1012.81 1011.41 1011.13 1010.66 1010.67 1010.84 1011.13 1011.25 1011.00 1010.42 1009.34 1009.15 1010.04 1010.43 1010.82 1011.55 1012.27 1012.98 1013.70
1016.31 1015.64 1016.07 1013.60 1013.32 1014.18 1014.05 1013.72 1013.21 1013.22 1013.89 1013.87 1013.56 1013.56 1013.67 1013.44 1012.79 1012.73 1013.10 1013.78 1014.33 1015.97 1016.76 1016.87 1016.06 1015.01 1013.55 1012.50 1011.76 1011.06 1010.63 1010.49 1010.47 1010.44 1010.29 1009.94 1009.59 1009.73 1010.89 1011.38 1011.64 1011.82 1012.93 1012.93 1012.94
1017.76 1017.29 1016.16 1015.31 1015.23 1014.69 1014.60 1013.87 1014.01 1014.04 1014.57 1013.86 1014.31 1014.34 1014.69 1014.52 1014.19 1013.90 1014.19 1014.56 1014.89 1015.35 1016.38 1016.72 1016.80 1015.87 1014.17 1012.61 1011.51 1010.79 1010.47 1010.23 1010.01 1010.00 1010.03 1009.91 1010.01 1010.78 1011.79 1012.08 1012.46 1013.04 1012.89 1012.98 1013.23
1019.19 1018.69 1017.93 1015.75 1014.85 1014.80 1014.16 1014.67 1014.83 1015.42 1015.18 1015.23 1015.45 1015.48 1015.07 1015.16 1015.50 1015.42 1015.50 1015.63 1015.81 1016.08 1016.44 1016.99 1017.43 1016.43 1014.40 1013.10 1012.77 1011.15 1009.93 1010.02 1010.10 1010.46 1010.62 1010.70 1010.96 1011.29 1012.03 1012.61 1012.89 1013.11 1013.13 1012.98 1013.13
Wind_Speed
9 9 9 9 9 9 9 9 9 8 8 9 10 11 13 12 13 10 11 7 8 11 7 10 9 7 10 4 7 10 11 11 3 4 9 5 8 5 1 7 3 6 7 7 7
11 11 10 10 10 9 9 9 9 9 8 9 10 11 12 10 14 12 3 6 8 10 12 8 6 7 5 3 3 12 10 12 11 8 5 3 8 5 7 4 4 4 4 6 8
11 11 11 10 10 10 10 9 9 9 9 9 10 13 13 12 11 12 2 6 10 11 10 5 2 7 3 1 2 3 5 7 4 7 6 3 6 3 7 9 7 9 12 12 11
11 11 11 11 11 10 10 10 10 10 9 10 11 12 12 12 2 9 2 7 13 14 10 6 9 4 2 3 1 6 6 2 6 4 4 3 7 8 4 8 6 10 11 12 12
12 11 10 10 10 10 10 10 11 11 11 11 11 10 10 6 12 10 6 12 14 3 1 5 3 1 1 2 3 5 3 2 3 4 3 3 10 6 7 2 7 10 12 12 11
11 11 11 10 10 10 9 10 10 11 11 11 13 14 13 5 3 2 1 4 6 6 6 1 2 7 2 1 6 3 1 4 3 1 7 8 11 8 12 3 8 9 10 10 8
11 10 10 10 10 10 10 10 11 11 11 12 10 9 6 9 2 2 2 4 5 7 5 6 4 8 1 4 1 2 10 8 8 3 10 4 19 19 8 4 10 11 7 7 7
12 11 10 9 9 9 10 11 12 12 12 12 10 11 6 2 1 6 4 4 2 1 4 4 6 2 7 2 7 10 9 11 14 7 4 9 12 7 2 8 11 9 8 6 5
13 11 10 10 10 10 10 12 12 10 9 11 9 11 9 5 8 5 6 3 1 2 2 3 11 5 9 13 11 11 7 7 6 7 4 10 15 13 7 9 11 7 7 5 5
13 11 10 9 10 10 11 7 4 5 8 10 9 10 7 3 5 1 2 6 2 5 10 11 8 12 5 9 9 13 11 11 12 8 11 14 17 14 14 13 13 5 3 3 4
16 11 10 9 10 10 8 6 8 9 12 8 6 3 7 6 6 5 1 5 5 7 4 3 12 10 10 6 8 10 12 13 12 10 9 15 18 19 17 15 12 6 2 3 3
17 13 11 10 10 8 8 4 7 8 4 4 2 3 0 2 6 5 5 7 4 5 5 10 5 6 5 4 9 11 14 14 11 11 15 19 22 20 19 1 4 3 4 4 5
17 14 12 10 11 5 5 6 7 3 9 7 4 7 6 6 2 7 5 3 6 6 3 10 10 3 5 9 11 12 12 13 16 18 19 20 19 16 5 3 4 6 4 5 4
18 15 12 12 4 3 3 5 4 3 8 11 11 5 8 2 5 4 4 7 5 8 6 8 9 5 9 12 8 12 10 12 17 18 15 18 19 18 7 10 12 8 7 4 5
18 15 12 5 11 3 8 7 5 5 7 15 11 7 3 7 3 9 1 5 8 9 4 5 5 8 11 7 7 13 12 16 18 20 19 20 11 4 5 8 8 12 5 3 2
19 14 11 6 6 6 7 2 6 9 3 9 6 10 11 5 5 3 4 3 4 9 9 11 4 6 8 7 7 11 14 18 21 17 12 7 5 12 14 17 10 10 10 6 7
19 14 9 7 7 9 7 6 9 8 4 7 8 7 7 5 6 2 3 6 7 7 6 2 9 5 5 11 5 10 15 12 8 10 13 9 15 19 12 7 7 10 12 10 9
18 10 5 2 7 8 7 9 9 7 1 5 2 5 9 4 8 4 6 8 7 9 10 3 6 6 7 9 12 17 9 8 18 15 21 19 18 6 6 6 6 10 12 13 10
17 6 4 5 6 6 9 9 5 5 6 4 5 11 11 6 6 3 8 6 6 5 7 8 3 3 11 10 10 10 13 9 13 16 17 14 14 21 20 17 9 10 14 7 10
7 6 6 8 4 7 8 6 3 4 6 5 10 1 7 7 4 4 4 7 2 2 5 7 12 9 3 6 16 12 11 11 8 12 18 16 22 16 18 17 19 25 25 26 12
7 6 8 8 5 8 7 6 2 5 6 5 7 5 7 7 4 9 2 9 1 3 6 10 8 9 12 15 13 10 12 13 12 11 15 18 10 23 24 16 18 20 21 12 22
5 4 7 7 9 1 5 5 2 3 1 3 6 7 8 6 8 7 4 4 4 6 10 8 8 11 17 18 5 9 12 10 8 13 13 14 16 20 14 11 8 8 11 10 18
7 3 5 9 5 3 2 3 2 5 2 4 2 2 1 6 2 5 3 10 5 6 8 8 5 9 9 7 9 8 8 12 14 14 14 16 15 17 17 18 17 17 15 10 13
6 4 3 2 3 6 5 5 5 2 1 3 4 6 6 8 7 6 5 6 4 2 4 5 6 12 11 18 17 17 16 16 15 9 16 16 22 21 18 16 14 14 16 10 4
4 5 4 6 4 7 4 3 7 4 2 4 4 3 4 5 7 9 3 5 7 10 5 5 10 14 18 19 19 19 19 17 17 18 16 18 19 15 12 11 16 16 15 18 13
7 6 3 9 6 7 5 4 6 2 4 5 7 3 6 8 9 12 12 10 8 4 5 4 5 13 18 19 15 16 19 20 19 17 17 15 16 13 11 11 12 14 16 17 17
4 3 5 2 6 7 2 4 2 3 3 3 5 7 9 7 10 12 12 11 12 11 10 8 4 9 12 12 19 15 7 10 9 10 12 12 13 12 11 12 17 18 18 21 18
Wind_Direction
353 349 346 340 336 334 332 330 326 324 322 317 316 308 304 311 298 221 50 3 320 315 303 258 222 200 231 169 262 250 251 238 127 308 97 102 281 87 17 281 44 38 38 10 350
351 346 343 339 336 335 331 328 325 320 319 317 310 303 303 320 267 70 27 314 299 291 258 245 179 220 178 170 220 253 265 59 37 17 351 18 292 358 273 204 201 327 345 330 322
349 344 341 339 335 333 329 326 323 321 319 314 310 308 307 308 254 78 189 299 285 274 272 297 248 258 190 46 262 288 13 85 121 20 318 338 237 330 297 267 46 329 317 322 310
348 344 340 337 335 333 330 327 325 321 315 309 307 306 309 257 355 69 344 272 265 257 234 204 230 220 320 93 349 122 56 335 81 141 250 270 356 287 294 329 353 301 320 306 307
347 343 340 335 333 331 328 326 324 321 315 314 311 316 290 195 72 114 243 236 262 298 323 204 221 212 30 85 139 91 109 210 160 209 265 345 264 291 271 141 301 309 308 307 306
348 342 337 333 330 327 323 320 317 314 312 311 309 319 245 97 61 62 320 249 359 4 27 20 54 6 97 74 309 73 261 177 196 133 217 275 295 251 262 160 284 300 310 301 315
347 340 333 328 326 323 318 314 310 306 302 297 301 290 328 69 8 104 252 21 1 347 29 16 10 268 171 157 8 209 240 183 213 273 289 328 270 222 228 262 291 289 309 305 292
347 339 331 324 320 314 309 306 299 293 291 287 301 280 80 91 67 220 189 141 264 265 12 319 299 66 289 49 209 236 241 253 154 150 145 244 293 89 23 270 287 299 295 280 304
346 338 331 325 317 309 304 296 281 273 259 277 265 227 127 149 207 84 330 39 88 173 96 263 249 294 196 230 222 190 329 336 319 170 308 263 300 294 281 292 289 303 257 288 315
350 340 331 322 313 306 298 274 288 264 226 245 263 257 168 134 98 310 123 286 306 221 208 223 227 235 196 334 2 346 333 322 305 335 332 306 294 304 304 293 291 285 225 285 311
353 342 329 318 307 301 288 198 202 192 214 329 78 11 117 118 187 194 232 249 268 248 339 248 259 32 30 4 336 318 304 298 295 343 297 297 296 288 295 291 279 241 323 295 319
352 343 331 315 303 307 273 308 28 344 231 181 148 276 358 45 178 156 260 263 288 336 258 235 107 70 337 298 294 294 291 296 327 327 321 303 294 293 275 261 329 347 264 286 326
347 338 327 318 318 260 48 23 313 302 260 143 172 181 152 225 39 85 283 356 291 269 346 312 74 63 289 300 310 302 313 336 316 310 287 278 291 295 100 151 171 224 236 263 320
343 335 324 325 286 24 101 337 297 333 259 135 180 138 179 223 186 345 327 311 239 326 342 286 65 299 293 291 331 310 15 309 300 300 302 312 292 282 258 187 180 228 232 331 344
340 331 316 311 316 1 351 318 326 242 258 149 137 97 174 249 48 139 351 236 276 314 244 68 279 305 305 335 337 300 329 300 286 280 288 284 250 181 237 236 246 210 197 262 353
337 325 323 217 242 17 325 333 248 234 211 146 159 203 200 183 169 118 213 226 310 285 267 281 329 288 307 318 256 302 284 289 277 257 249 305 315 290 301 318 325 302 344 352 321
333 319 298 302 348 345 320 237 241 258 103 146 201 204 241 139 198 259 297 260 304 285 221 255 257 78 293 291 296 280 315 312 295 303 295 343 322 313 333 356 1 334 317 305 348
328 312 202 4 325 325 278 242 264 36 184 43 270 221 247 131 213 256 265 257 143 306 302 291 288 186 109 315 312 298 306 295 299 313 312 306 280 331 198 159 349 297 360 350 338
321 206 217 13 323 298 266 243 353 16 24 287 217 253 212 189 272 235 243 323 36 11 325 314 267 32 260 307 312 312 278 7 289 283 277 306 323 327 44 22 332 279 222 234 306
282 236 65 326 326 269 254 274 6 19 307 246 265 7 289 170 230 186 304 92 104 339 357 326 294 275 21 297 255 227 301 302 301 296 295 303 312 290 10 329 347 9 10 349 297
259 243 52 329 272 244 266 54 137 79 324 311 300 295 278 302 290 294 298 111 30 117 302 293 266 284 281 268 316 299 265 267 285 305 307 306 296 340 323 351 358 344 347 351 317
276 274 22 317 259 304 349 13 357 295 268 272 280 290 298 336 296 284 292 56 48 333 306 33 309 293 292 290 27 290 291 298 285 292 296 295 282 290 317 20 0 327 283 316 286
335 344 51 307 318 16 104 222 323 297 39 307 268 271 52 286 313 285 293 97 44 333 350 7 273 310 287 144 179 236 273 283 289 279 276 286 287 293 321 0 349 349 347 10 350
307 317 48 75 52 322 345 260 248 101 218 280 316 255 265 252 221 269 258 132 131 297 61 252 265 255 270 302 310 296 294 291 286 271 279 277 298 301 356 338 342 334 352 1 270
4 70 13 328 28 325 281 319 277 220 221 267 199 290 325 285 295 269 287 275 256 117 201 270 269 275 280 292 292 286 280 280 276 276 276 288 295 336 331 333 333 347 353 332 321
337 338 338 275 291 271 148 165 301 114 274 161 270 66 301 286 291 300 316 304 289 194 251 242 260 289 286 276 277 297 293 285 270 267 268 294 303 22 344 330 354 330 323 325 321
10 188 274 254 239 261 62 31 339 325 152 319 335 307 280 356 343 315 299 284 276 278 278 288 304 291 283 328 318 282 298 337 318 300 291 295 302 338 350 332 331 324 325 319 320